contact:dominique.lefevre@mio.osupytheas.fr, maurice.libes@osupytheas.fr, didier.mallarino@osupytheas.fr
Project:EMSO http://www.emso-fr.org/EMSO-France
Depth: 2436.0 m
Title:EMSO Ligure Ouest : Data MII capteur MICROCAT
DateTime_Computer,Latitude,Longitude,Temperature,Conductivity,Pressure,DateTime_Instrument
DateTime_Computer,Latitude,Longitude,degC,S m-1,dbar,DateTime_Instrument
2019-12-26T00:00:26Z,42.805,6.029,13.2993,4.60007,2469.9,2019-12-26T02:00:57Z
2019-12-26T00:03:29Z,42.805,6.029,13.2991,4.60000,2469.914,2019-12-26T02:04:00Z
2019-12-26T00:06:32Z,42.805,6.029,13.2981,4.60019,2469.89,2019-12-26T02:07:03Z
2019-12-26T00:09:36Z,42.805,6.029,13.2979,4.60018,2469.89,2019-12-26T02:10:06Z
2019-12-26T00:12:39Z,42.805,6.029,13.2986,4.59994,2469.914,2019-12-26T02:13:10Z
2019-12-26T00:15:42Z,42.805,6.029,13.2998,4.59996,2469.923,2019-12-26T02:16:13Z
2019-12-26T00:18:45Z,42.805,6.029,13.2978,4.59998,2469.9,2019-12-26T02:19:16Z
2019-12-26T00:21:48Z,42.805,6.029,13.2994,4.60004,2469.914,2019-12-26T02:22:19Z
2019-12-26T00:24:52Z,42.805,6.029,13.2995,4.59996,2469.876,2019-12-26T02:25:22Z
2019-12-26T00:27:55Z,42.805,6.029,13.2990,4.59998,2469.89,2019-12-26T02:28:26Z
2019-12-26T00:30:58Z,42.805,6.029,13.2998,4.60018,2469.923,2019-12-26T02:31:29Z
2019-12-26T00:34:01Z,42.805,6.029,13.2993,4.60003,2469.89,2019-12-26T02:34:32Z
2019-12-26T00:37:04Z,42.805,6.029,13.3008,4.59986,2469.89,2019-12-26T02:37:35Z
2019-12-26T00:40:08Z,42.805,6.029,13.3042,4.59986,2469.876,2019-12-26T02:40:39Z
2019-12-26T00:43:11Z,42.805,6.029,13.2996,4.59991,2469.89,2019-12-26T02:43:42Z
2019-12-26T00:46:14Z,42.805,6.029,13.2996,4.59990,2469.914,2019-12-26T02:46:45Z
2019-12-26T00:49:17Z,42.805,6.029,13.3004,4.59995,2469.9,2019-12-26T02:49:48Z
2019-12-26T00:52:20Z,42.805,6.029,13.3002,4.59999,2469.9,2019-12-26T02:52:51Z
2019-12-26T00:55:24Z,42.805,6.029,13.3020,4.59999,2469.89,2019-12-26T02:55:55Z
2019-12-26T00:58:27Z,42.805,6.029,13.2991,4.59989,2469.89,2019-12-26T02:58:58Z
2019-12-26T01:01:30Z,42.805,6.029,13.3006,4.59981,2469.867,2019-12-26T03:02:01Z
2019-12-26T01:04:33Z,42.805,6.029,13.3000,4.59996,2469.9,2019-12-26T03:05:04Z
2019-12-26T01:07:37Z,42.805,6.029,13.2988,4.60001,2469.9,2019-12-26T03:08:07Z
2019-12-26T01:10:40Z,42.805,6.029,13.3021,4.59983,2469.89,2019-12-26T03:11:11Z
2019-12-26T01:13:43Z,42.805,6.029,13.3034,4.59995,2469.914,2019-12-26T03:14:14Z
2019-12-26T01:16:46Z,42.805,6.029,13.3005,4.59996,2469.914,2019-12-26T03:17:17Z
2019-12-26T01:19:50Z,42.805,6.029,13.2996,4.59994,2469.853,2019-12-26T03:20:20Z
2019-12-26T01:22:53Z,42.805,6.029,13.3032,4.59983,2469.923,2019-12-26T03:23:24Z
2019-12-26T01:25:56Z,42.805,6.029,13.3030,4.60006,2469.844,2019-12-26T03:26:27Z
2019-12-26T01:28:59Z,42.805,6.029,13.2996,4.59990,2469.89,2019-12-26T03:29:30Z
2019-12-26T01:32:02Z,42.805,6.029,13.2984,4.59994,2469.914,2019-12-26T03:32:33Z
2019-12-26T01:35:06Z,42.805,6.029,13.2990,4.59986,2469.914,2019-12-26T03:35:36Z
2019-12-26T01:38:09Z,42.805,6.029,13.2984,4.59988,2469.914,2019-12-26T03:38:40Z
2019-12-26T01:41:12Z,42.805,6.029,13.2986,4.59979,2469.876,2019-12-26T03:41:43Z
2019-12-26T01:44:15Z,42.805,6.029,13.2987,4.60001,2469.904,2019-12-26T03:44:46Z
2019-12-26T01:47:18Z,42.805,6.029,13.2995,4.60003,2469.89,2019-12-26T03:47:49Z
2019-12-26T01:50:22Z,42.805,6.029,13.2996,4.59999,2469.867,2019-12-26T03:50:53Z
2019-12-26T01:53:25Z,42.805,6.029,13.2997,4.59992,2469.876,2019-12-26T03:53:56Z
2019-12-26T01:56:28Z,42.805,6.029,13.2995,4.59987,2469.9,2019-12-26T03:56:59Z
2019-12-26T01:59:31Z,42.805,6.029,13.2997,4.59987,2469.9,2019-12-26T04:00:02Z
2019-12-26T02:02:35Z,42.805,6.029,13.3000,4.59986,2469.876,2019-12-26T04:03:05Z
2019-12-26T02:05:38Z,42.805,6.029,13.3006,4.59997,2469.9,2019-12-26T04:06:09Z
2019-12-26T02:08:41Z,42.805,6.029,13.2994,4.59986,2469.89,2019-12-26T04:09:12Z
2019-12-26T02:11:44Z,42.805,6.029,13.3005,4.59991,2469.876,2019-12-26T04:12:15Z
2019-12-26T02:14:47Z,42.805,6.029,13.3002,4.59996,2469.886,2019-12-26T04:15:18Z
2019-12-26T02:17:51Z,42.805,6.029,13.2998,4.59994,2469.914,2019-12-26T04:18:22Z
2019-12-26T02:20:54Z,42.805,6.029,13.3093,4.59991,2469.9,2019-12-26T04:21:25Z
2019-12-26T02:23:58Z,42.805,6.029,13.3011,4.59986,2469.96,2019-12-26T04:24:28Z
2019-12-26T02:27:01Z,42.805,6.029,13.2991,4.59996,2469.914,2019-12-26T04:27:32Z
2019-12-26T02:30:04Z,42.805,6.029,13.3051,4.60012,2469.937,2019-12-26T04:30:35Z
2019-12-26T02:33:07Z,42.805,6.029,13.3004,4.60007,2469.923,2019-12-26T04:33:38Z
2019-12-26T02:36:11Z,42.805,6.029,13.3005,4.59992,2469.914,2019-12-26T04:36:42Z
2019-12-26T02:39:14Z,42.805,6.029,13.3019,4.59989,2469.9,2019-12-26T04:39:45Z
2019-12-26T02:42:17Z,42.805,6.029,13.3010,4.60001,2469.9,2019-12-26T04:42:48Z
2019-12-26T02:45:20Z,42.805,6.029,13.2996,4.60024,2469.937,2019-12-26T04:45:51Z
2019-12-26T02:48:23Z,42.805,6.029,13.2980,4.60014,2469.937,2019-12-26T04:48:54Z
2019-12-26T02:51:27Z,42.805,6.029,13.2978,4.59989,2469.914,2019-12-26T04:51:57Z
2019-12-26T02:54:30Z,42.805,6.029,13.2960,4.59987,2469.96,2019-12-26T04:55:01Z
2019-12-26T02:57:33Z,42.805,6.029,13.2964,4.59982,2469.947,2019-12-26T04:58:04Z
2019-12-26T03:00:36Z,42.805,6.029,13.2970,4.59985,2469.984,2019-12-26T05:01:07Z
2019-12-26T03:03:39Z,42.805,6.029,13.3016,4.59992,2469.97,2019-12-26T05:04:10Z
2019-12-26T03:06:43Z,42.805,6.029,13.2964,4.59996,2469.923,2019-12-26T05:07:13Z
2019-12-26T03:09:46Z,42.805,6.029,13.2967,4.59984,2469.947,2019-12-26T05:10:17Z
2019-12-26T03:12:49Z,42.805,6.029,13.2962,4.59977,2469.96,2019-12-26T05:13:20Z
2019-12-26T03:15:52Z,42.805,6.029,13.2961,4.59979,2469.937,2019-12-26T05:16:23Z
2019-12-26T03:18:56Z,42.805,6.029,13.2965,4.59979,2469.937,2019-12-26T05:19:26Z
2019-12-26T03:21:59Z,42.805,6.029,13.2969,4.59978,2469.947,2019-12-26T05:22:30Z
2019-12-26T03:25:02Z,42.805,6.029,13.2963,4.59975,2469.947,2019-12-26T05:25:33Z
2019-12-26T03:28:05Z,42.805,6.029,13.2964,4.59983,2469.947,2019-12-26T05:28:36Z
2019-12-26T03:31:09Z,42.805,6.029,13.2959,4.59983,2469.96,2019-12-26T05:31:39Z
2019-12-26T03:34:12Z,42.805,6.029,13.2964,4.59977,2469.97,2019-12-26T05:34:43Z
2019-12-26T03:37:15Z,42.805,6.029,13.2968,4.59976,2469.947,2019-12-26T05:37:46Z
2019-12-26T03:40:18Z,42.805,6.029,13.2964,4.59977,2469.947,2019-12-26T05:40:49Z
2019-12-26T03:43:22Z,42.805,6.029,13.2964,4.59974,2469.97,2019-12-26T05:43:53Z
2019-12-26T03:46:25Z,42.805,6.029,13.2960,4.59966,2469.984,2019-12-26T05:46:56Z
2019-12-26T03:49:28Z,42.805,6.029,13.2963,4.59968,2469.984,2019-12-26T05:49:59Z
2019-12-26T03:52:31Z,42.805,6.029,13.2962,4.59968,2469.984,2019-12-26T05:53:02Z
2019-12-26T03:55:35Z,42.805,6.029,13.2964,4.59967,2469.947,2019-12-26T05:56:06Z
2019-12-26T03:58:38Z,42.805,6.029,13.2961,4.59964,2470.007,2019-12-26T05:59:09Z
2019-12-26T04:01:42Z,42.805,6.029,13.2962,4.59966,2469.96,2019-12-26T06:02:13Z
2019-12-26T04:04:45Z,42.805,6.029,13.2964,4.59965,2470.017,2019-12-26T06:05:16Z
2019-12-26T04:07:48Z,42.805,6.029,13.2959,4.59964,2469.993,2019-12-26T06:08:19Z
2019-12-26T04:10:51Z,42.805,6.029,13.2963,4.59964,2470.007,2019-12-26T06:11:22Z
2019-12-26T04:13:55Z,42.805,6.029,13.2959,4.59964,2470.03,2019-12-26T06:14:26Z
2019-12-26T04:16:58Z,42.805,6.029,13.2960,4.59966,2470.03,2019-12-26T06:17:29Z
2019-12-26T04:20:01Z,42.805,6.029,13.2961,4.59966,2470.03,2019-12-26T06:20:32Z
2019-12-26T04:23:04Z,42.805,6.029,13.2961,4.59964,2470.04,2019-12-26T06:23:35Z
2019-12-26T04:26:08Z,42.805,6.029,13.2960,4.59964,2470.03,2019-12-26T06:26:38Z
2019-12-26T04:29:11Z,42.805,6.029,13.2958,4.59963,2470.017,2019-12-26T06:29:42Z
2019-12-26T04:32:14Z,42.805,6.029,13.2962,4.59962,2470.017,2019-12-26T06:32:45Z
2019-12-26T04:35:17Z,42.805,6.029,13.2962,4.59963,2470.053,2019-12-26T06:35:48Z
2019-12-26T04:38:21Z,42.805,6.029,13.2961,4.59964,2470.04,2019-12-26T06:38:51Z
2019-12-26T04:41:24Z,42.805,6.029,13.2964,4.59964,2470.053,2019-12-26T06:41:55Z
2019-12-26T04:44:27Z,42.805,6.029,13.2959,4.59965,2470.077,2019-12-26T06:44:58Z
2019-12-26T04:47:30Z,42.805,6.029,13.2958,4.59966,2470.04,2019-12-26T06:48:01Z
2019-12-26T04:50:33Z,42.805,6.029,13.2962,4.59964,2470.063,2019-12-26T06:51:04Z
2019-12-26T04:53:37Z,42.805,6.029,13.2963,4.59964,2470.053,2019-12-26T06:54:08Z
2019-12-26T04:56:40Z,42.805,6.029,13.2961,4.59966,2470.04,2019-12-26T06:57:11Z
2019-12-26T04:59:43Z,42.805,6.029,13.2962,4.59966,2470.063,2019-12-26T07:00:14Z
2019-12-26T05:02:46Z,42.805,6.029,13.2964,4.59964,2470.077,2019-12-26T07:03:17Z
2019-12-26T05:05:49Z,42.805,6.029,13.2961,4.59967,2470.1,2019-12-26T07:06:20Z
2019-12-26T05:08:53Z,42.805,6.029,13.2961,4.59965,2470.087,2019-12-26T07:09:24Z
2019-12-26T05:11:56Z,42.805,6.029,13.2962,4.59964,2470.087,2019-12-26T07:12:27Z
2019-12-26T05:14:59Z,42.805,6.029,13.2961,4.59965,2470.077,2019-12-26T07:15:30Z
2019-12-26T05:18:02Z,42.805,6.029,13.2962,4.59964,2470.087,2019-12-26T07:18:33Z
2019-12-26T05:21:06Z,42.805,6.029,13.2961,4.59964,2470.11,2019-12-26T07:21:36Z
2019-12-26T05:24:09Z,42.805,6.029,13.2958,4.59964,2470.133,2019-12-26T07:24:40Z
2019-12-26T05:27:12Z,42.805,6.029,13.2962,4.59963,2470.073,2019-12-26T07:27:43Z
2019-12-26T05:30:15Z,42.805,6.029,13.2961,4.59963,2470.124,2019-12-26T07:30:46Z
2019-12-26T05:33:19Z,42.805,6.029,13.2964,4.59964,2470.124,2019-12-26T07:33:50Z
2019-12-26T05:36:22Z,42.805,6.029,13.2962,4.59964,2470.11,2019-12-26T07:36:53Z
2019-12-26T05:39:25Z,42.805,6.029,13.2961,4.59964,2470.1,2019-12-26T07:39:56Z
2019-12-26T05:42:28Z,42.805,6.029,13.2961,4.59964,2470.147,2019-12-26T07:42:59Z
2019-12-26T05:45:32Z,42.805,6.029,13.2961,4.59964,2470.124,2019-12-26T07:46:03Z
2019-12-26T05:48:35Z,42.805,6.029,13.2959,4.59968,2470.133,2019-12-26T07:49:06Z
2019-12-26T05:51:38Z,42.805,6.029,13.2964,4.59965,2470.124,2019-12-26T07:52:09Z
2019-12-26T05:54:41Z,42.805,6.029,13.2961,4.59962,2470.124,2019-12-26T07:55:12Z
2019-12-26T05:57:45Z,42.805,6.029,13.2963,4.59965,2470.11,2019-12-26T07:58:15Z
2019-12-26T06:00:48Z,42.805,6.029,13.2961,4.59964,2470.147,2019-12-26T08:01:19Z
2019-12-26T06:03:51Z,42.805,6.029,13.2967,4.59963,2470.18,2019-12-26T08:04:22Z
2019-12-26T06:06:54Z,42.805,6.029,13.2964,4.59964,2470.171,2019-12-26T08:07:25Z
2019-12-26T06:09:58Z,42.805,6.029,13.2964,4.59964,2470.133,2019-12-26T08:10:28Z
2019-12-26T06:13:01Z,42.805,6.029,13.2966,4.59963,2470.171,2019-12-26T08:13:32Z
2019-12-26T06:16:04Z,42.805,6.029,13.2961,4.59963,2470.171,2019-12-26T08:16:35Z
2019-12-26T06:19:07Z,42.805,6.029,13.2958,4.59965,2470.156,2019-12-26T08:19:38Z
2019-12-26T06:22:10Z,42.805,6.029,13.2964,4.59964,2470.171,2019-12-26T08:22:41Z
2019-12-26T06:25:14Z,42.805,6.029,13.2967,4.59966,2470.156,2019-12-26T08:25:44Z
2019-12-26T06:28:17Z,42.805,6.029,13.2966,4.59966,2470.171,2019-12-26T08:28:48Z
2019-12-26T06:31:20Z,42.805,6.029,13.2964,4.59964,2470.171,2019-12-26T08:31:51Z
2019-12-26T06:34:23Z,42.805,6.029,13.2960,4.59964,2470.156,2019-12-26T08:34:54Z
2019-12-26T06:37:27Z,42.805,6.029,13.2961,4.59966,2470.143,2019-12-26T08:37:58Z
2019-12-26T06:40:30Z,42.805,6.029,13.2961,4.59964,2470.156,2019-12-26T08:41:01Z
2019-12-26T06:43:33Z,42.805,6.029,13.2964,4.59965,2470.156,2019-12-26T08:44:04Z
2019-12-26T06:46:36Z,42.805,6.029,13.2964,4.59964,2470.133,2019-12-26T08:47:07Z
2019-12-26T06:49:40Z,42.805,6.029,13.2962,4.59964,2470.171,2019-12-26T08:50:10Z
2019-12-26T06:52:43Z,42.805,6.029,13.2961,4.59964,2470.156,2019-12-26T08:53:14Z
2019-12-26T06:55:46Z,42.805,6.029,13.2960,4.59967,2470.171,2019-12-26T08:56:17Z
2019-12-26T06:58:49Z,42.805,6.029,13.2962,4.59963,2470.203,2019-12-26T08:59:20Z
2019-12-26T07:01:52Z,42.805,6.029,13.2962,4.59966,2470.156,2019-12-26T09:02:23Z
2019-12-26T07:04:56Z,42.805,6.029,13.2959,4.59962,2470.18,2019-12-26T09:05:27Z
2019-12-26T07:07:59Z,42.805,6.029,13.2961,4.59963,2470.194,2019-12-26T09:08:30Z
2019-12-26T07:11:02Z,42.805,6.029,13.2958,4.59964,2470.18,2019-12-26T09:11:33Z
2019-12-26T07:14:05Z,42.805,6.029,13.2961,4.59964,2470.203,2019-12-26T09:14:36Z
2019-12-26T07:17:08Z,42.805,6.029,13.2961,4.59964,2470.194,2019-12-26T09:17:39Z
2019-12-26T07:20:12Z,42.805,6.029,13.2964,4.59962,2470.156,2019-12-26T09:20:43Z
2019-12-26T07:23:15Z,42.805,6.029,13.2963,4.59963,2470.194,2019-12-26T09:23:46Z
2019-12-26T07:26:18Z,42.805,6.029,13.2963,4.59963,2470.18,2019-12-26T09:26:49Z
2019-12-26T07:29:22Z,42.805,6.029,13.2961,4.59967,2470.133,2019-12-26T09:29:52Z
2019-12-26T07:32:25Z,42.805,6.029,13.2959,4.59961,2470.18,2019-12-26T09:32:56Z
2019-12-26T07:35:28Z,42.805,6.029,13.2961,4.59962,2470.18,2019-12-26T09:35:59Z
2019-12-26T07:38:31Z,42.805,6.029,13.2961,4.59963,2470.18,2019-12-26T09:39:02Z
2019-12-26T07:41:34Z,42.805,6.029,13.2963,4.59964,2470.156,2019-12-26T09:42:05Z
2019-12-26T07:44:38Z,42.805,6.029,13.2964,4.59962,2470.156,2019-12-26T09:45:08Z
2019-12-26T07:47:41Z,42.805,6.029,13.2963,4.59961,2470.156,2019-12-26T09:48:12Z
2019-12-26T07:50:44Z,42.805,6.029,13.2965,4.59966,2470.156,2019-12-26T09:51:15Z
2019-12-26T07:53:47Z,42.805,6.029,13.2963,4.59961,2470.133,2019-12-26T09:54:18Z
2019-12-26T07:56:50Z,42.805,6.029,13.2962,4.59966,2470.171,2019-12-26T09:57:21Z
2019-12-26T07:59:54Z,42.805,6.029,13.2963,4.59961,2470.194,2019-12-26T10:00:24Z
2019-12-26T08:02:57Z,42.805,6.029,13.2958,4.59962,2470.194,2019-12-26T10:03:28Z
2019-12-26T08:06:00Z,42.805,6.029,13.2961,4.59962,2470.156,2019-12-26T10:06:31Z
2019-12-26T08:09:03Z,42.805,6.029,13.2964,4.59964,2470.156,2019-12-26T10:09:34Z
2019-12-26T08:12:06Z,42.805,6.029,13.2963,4.59962,2470.18,2019-12-26T10:12:37Z
2019-12-26T08:15:10Z,42.805,6.029,13.2964,4.59964,2470.156,2019-12-26T10:15:41Z
2019-12-26T08:18:13Z,42.805,6.029,13.2960,4.59962,2470.156,2019-12-26T10:18:44Z
2019-12-26T08:21:16Z,42.805,6.029,13.2961,4.59961,2470.18,2019-12-26T10:21:47Z
2019-12-26T08:24:19Z,42.805,6.029,13.2961,4.59961,2470.156,2019-12-26T10:24:50Z
2019-12-26T08:27:22Z,42.805,6.029,13.2960,4.59962,2470.171,2019-12-26T10:27:53Z
2019-12-26T08:30:26Z,42.805,6.029,13.2964,4.59962,2470.156,2019-12-26T10:30:57Z
2019-12-26T08:33:29Z,42.805,6.029,13.2964,4.59962,2470.18,2019-12-26T10:34:00Z
2019-12-26T08:36:32Z,42.805,6.029,13.2963,4.59962,2470.143,2019-12-26T10:37:03Z
2019-12-26T08:39:35Z,42.805,6.029,13.2960,4.59963,2470.194,2019-12-26T10:40:06Z
2019-12-26T08:42:39Z,42.805,6.029,13.2963,4.59961,2470.156,2019-12-26T10:43:10Z
2019-12-26T08:45:42Z,42.805,6.029,13.2960,4.59961,2470.194,2019-12-26T10:46:13Z
2019-12-26T08:48:45Z,42.805,6.029,13.2960,4.59961,2470.156,2019-12-26T10:49:16Z
2019-12-26T08:51:48Z,42.805,6.029,13.2961,4.59963,2470.156,2019-12-26T10:52:19Z
2019-12-26T08:54:51Z,42.805,6.029,13.2963,4.59963,2470.171,2019-12-26T10:55:22Z
2019-12-26T08:57:55Z,42.805,6.029,13.2962,4.59963,2470.156,2019-12-26T10:58:26Z
2019-12-26T09:00:58Z,42.805,6.029,13.2964,4.59965,2470.171,2019-12-26T11:01:29Z
2019-12-26T09:04:01Z,42.805,6.029,13.2961,4.59963,2470.156,2019-12-26T11:04:32Z
2019-12-26T09:07:04Z,42.805,6.029,13.2963,4.59961,2470.147,2019-12-26T11:07:35Z
2019-12-26T09:10:07Z,42.805,6.029,13.2964,4.59962,2470.156,2019-12-26T11:10:38Z
2019-12-26T09:13:11Z,42.805,6.029,13.2959,4.59961,2470.156,2019-12-26T11:13:42Z
2019-12-26T09:16:14Z,42.805,6.029,13.2964,4.59961,2470.171,2019-12-26T11:16:45Z
2019-12-26T09:19:17Z,42.805,6.029,13.2961,4.59961,2470.18,2019-12-26T11:19:48Z
2019-12-26T09:22:20Z,42.805,6.029,13.2958,4.59961,2470.156,2019-12-26T11:22:51Z
2019-12-26T09:25:24Z,42.805,6.029,13.2967,4.59961,2470.156,2019-12-26T11:25:54Z
2019-12-26T09:28:27Z,42.805,6.029,13.2963,4.59967,2470.147,2019-12-26T11:28:58Z
2019-12-26T09:31:30Z,42.805,6.029,13.2965,4.59963,2470.171,2019-12-26T11:32:01Z
2019-12-26T09:34:33Z,42.805,6.029,13.2965,4.59966,2470.156,2019-12-26T11:35:04Z
2019-12-26T09:37:36Z,42.805,6.029,13.2960,4.59961,2470.156,2019-12-26T11:38:07Z
2019-12-26T09:40:40Z,42.805,6.029,13.2961,4.59961,2470.18,2019-12-26T11:41:11Z
2019-12-26T09:43:43Z,42.805,6.029,13.2967,4.59961,2470.156,2019-12-26T11:44:14Z
2019-12-26T09:46:46Z,42.805,6.029,13.2961,4.59966,2470.147,2019-12-26T11:47:17Z
2019-12-26T09:49:49Z,42.805,6.029,13.2965,4.59961,2470.156,2019-12-26T11:50:20Z
2019-12-26T09:52:53Z,42.805,6.029,13.2963,4.59961,2470.133,2019-12-26T11:53:24Z
2019-12-26T09:55:56Z,42.805,6.029,13.2958,4.59965,2470.11,2019-12-26T11:56:27Z
2019-12-26T09:58:59Z,42.805,6.029,13.2964,4.59961,2470.147,2019-12-26T11:59:30Z
2019-12-26T10:02:02Z,42.805,6.029,13.2961,4.59961,2470.133,2019-12-26T12:02:33Z
2019-12-26T10:05:06Z,42.805,6.029,13.2961,4.59960,2470.156,2019-12-26T12:05:36Z
2019-12-26T10:08:09Z,42.805,6.029,13.2963,4.59961,2470.147,2019-12-26T12:08:40Z
2019-12-26T10:11:12Z,42.805,6.029,13.2961,4.59960,2470.156,2019-12-26T12:11:43Z
2019-12-26T10:14:15Z,42.805,6.029,13.2963,4.59961,2470.133,2019-12-26T12:14:46Z
2019-12-26T10:17:18Z,42.805,6.029,13.2964,4.59960,2470.124,2019-12-26T12:17:49Z
2019-12-26T10:20:22Z,42.805,6.029,13.2961,4.59960,2470.133,2019-12-26T12:20:53Z
2019-12-26T10:23:25Z,42.805,6.029,13.2959,4.59961,2470.171,2019-12-26T12:23:56Z
2019-12-26T10:26:28Z,42.805,6.029,13.2959,4.59961,2470.124,2019-12-26T12:26:59Z
2019-12-26T10:29:31Z,42.805,6.029,13.2961,4.59961,2470.087,2019-12-26T12:30:02Z
2019-12-26T10:32:35Z,42.805,6.029,13.2960,4.59961,2470.11,2019-12-26T12:33:06Z
2019-12-26T10:35:38Z,42.805,6.029,13.2958,4.59960,2470.133,2019-12-26T12:36:09Z
2019-12-26T10:38:41Z,42.805,6.029,13.2962,4.59959,2470.133,2019-12-26T12:39:12Z
2019-12-26T10:41:44Z,42.805,6.029,13.2955,4.59960,2470.147,2019-12-26T12:42:15Z
2019-12-26T10:44:48Z,42.805,6.029,13.2962,4.59960,2470.11,2019-12-26T12:45:19Z
2019-12-26T10:47:51Z,42.805,6.029,13.2961,4.59961,2470.147,2019-12-26T12:48:22Z
2019-12-26T10:50:54Z,42.805,6.029,13.2959,4.59960,2470.124,2019-12-26T12:51:25Z
2019-12-26T10:53:57Z,42.805,6.029,13.2963,4.59962,2470.087,2019-12-26T12:54:28Z
2019-12-26T10:57:00Z,42.805,6.029,13.2961,4.59961,2470.11,2019-12-26T12:57:31Z
2019-12-26T11:00:04Z,42.805,6.029,13.2963,4.59961,2470.11,2019-12-26T13:00:35Z
2019-12-26T11:03:07Z,42.805,6.029,13.2959,4.59961,2470.124,2019-12-26T13:03:38Z
2019-12-26T11:06:10Z,42.805,6.029,13.2961,4.59960,2470.087,2019-12-26T13:06:41Z
2019-12-26T11:09:14Z,42.805,6.029,13.2961,4.59961,2470.087,2019-12-26T13:09:45Z
2019-12-26T11:12:17Z,42.805,6.029,13.2959,4.59960,2470.1,2019-12-26T13:12:48Z
2019-12-26T11:15:20Z,42.805,6.029,13.2958,4.59958,2470.1,2019-12-26T13:15:51Z
2019-12-26T11:18:23Z,42.805,6.029,13.2958,4.59959,2470.1,2019-12-26T13:18:54Z
2019-12-26T11:21:27Z,42.805,6.029,13.2958,4.59959,2470.087,2019-12-26T13:21:58Z
2019-12-26T11:24:30Z,42.805,6.029,13.2962,4.59960,2470.1,2019-12-26T13:25:01Z
2019-12-26T11:27:33Z,42.805,6.029,13.2963,4.59960,2470.087,2019-12-26T13:28:04Z
2019-12-26T11:30:36Z,42.805,6.029,13.2958,4.59964,2470.063,2019-12-26T13:31:07Z
2019-12-26T11:33:39Z,42.805,6.029,13.2963,4.59963,2470.053,2019-12-26T13:34:10Z
2019-12-26T11:36:43Z,42.805,6.029,13.2961,4.59961,2470.053,2019-12-26T13:37:14Z
2019-12-26T11:39:46Z,42.805,6.029,13.2961,4.59959,2470.049,2019-12-26T13:40:17Z
2019-12-26T11:42:49Z,42.805,6.029,13.2962,4.59966,2470.063,2019-12-26T13:43:20Z
2019-12-26T11:45:53Z,42.805,6.029,13.2958,4.59960,2470.063,2019-12-26T13:46:23Z
2019-12-26T11:48:56Z,42.805,6.029,13.2961,4.59961,2470.063,2019-12-26T13:49:27Z
2019-12-26T11:51:59Z,42.805,6.029,13.2961,4.59960,2470.063,2019-12-26T13:52:30Z
2019-12-26T11:55:02Z,42.805,6.029,13.2958,4.59960,2470.04,2019-12-26T13:55:33Z
2019-12-26T11:58:06Z,42.805,6.029,13.2959,4.59960,2470.063,2019-12-26T13:58:36Z
2019-12-26T12:01:09Z,42.805,6.029,13.2959,4.59962,2470.077,2019-12-26T14:01:40Z
2019-12-26T12:04:12Z,42.805,6.029,13.2961,4.59959,2470.077,2019-12-26T14:04:43Z
2019-12-26T12:07:15Z,42.805,6.029,13.2962,4.59960,2470.053,2019-12-26T14:07:46Z
2019-12-26T12:10:18Z,42.805,6.029,13.2958,4.59958,2470.077,2019-12-26T14:10:49Z
2019-12-26T12:13:22Z,42.805,6.029,13.2959,4.59960,2470.063,2019-12-26T14:13:53Z
2019-12-26T12:16:25Z,42.805,6.029,13.2960,4.59961,2470.063,2019-12-26T14:16:56Z
2019-12-26T12:19:28Z,42.805,6.029,13.2959,4.59959,2470.053,2019-12-26T14:19:59Z
2019-12-26T12:22:31Z,42.805,6.029,13.2958,4.59961,2470.04,2019-12-26T14:23:02Z
2019-12-26T12:25:35Z,42.805,6.029,13.2960,4.59961,2470.04,2019-12-26T14:26:05Z
2019-12-26T12:28:38Z,42.805,6.029,13.2957,4.59959,2470.04,2019-12-26T14:29:09Z
2019-12-26T12:31:41Z,42.805,6.029,13.2959,4.59961,2470.04,2019-12-26T14:32:12Z
2019-12-26T12:34:44Z,42.805,6.029,13.2963,4.59961,2470.04,2019-12-26T14:35:15Z
2019-12-26T12:37:47Z,42.805,6.029,13.2961,4.59963,2470.04,2019-12-26T14:38:18Z
2019-12-26T12:40:51Z,42.805,6.029,13.2964,4.59961,2470.053,2019-12-26T14:41:22Z
2019-12-26T12:43:54Z,42.805,6.029,13.2963,4.59966,2470.04,2019-12-26T14:44:25Z
2019-12-26T12:46:57Z,42.805,6.029,13.2964,4.59960,2470.017,2019-12-26T14:47:28Z
2019-12-26T12:50:00Z,42.805,6.029,13.2964,4.59961,2470.04,2019-12-26T14:50:31Z
2019-12-26T12:53:04Z,42.805,6.029,13.2964,4.59964,2469.993,2019-12-26T14:53:35Z
2019-12-26T12:56:07Z,42.805,6.029,13.2961,4.59961,2469.993,2019-12-26T14:56:38Z
2019-12-26T12:59:10Z,42.805,6.029,13.2961,4.59961,2470.017,2019-12-26T14:59:41Z
2019-12-26T13:02:13Z,42.805,6.029,13.2961,4.59961,2470.007,2019-12-26T15:02:44Z
2019-12-26T13:05:17Z,42.805,6.029,13.2962,4.59961,2470.03,2019-12-26T15:05:48Z
2019-12-26T13:08:20Z,42.805,6.029,13.2962,4.59964,2470.017,2019-12-26T15:08:51Z
2019-12-26T13:11:23Z,42.805,6.029,13.2960,4.59960,2470.03,2019-12-26T15:11:54Z
2019-12-26T13:14:26Z,42.805,6.029,13.2963,4.59961,2469.993,2019-12-26T15:14:57Z
2019-12-26T13:17:29Z,42.805,6.029,13.2965,4.59962,2470.03,2019-12-26T15:18:00Z
2019-12-26T13:20:33Z,42.805,6.029,13.2962,4.59964,2470.03,2019-12-26T15:21:04Z
2019-12-26T13:23:36Z,42.805,6.029,13.2957,4.59963,2470.03,2019-12-26T15:24:07Z
2019-12-26T13:26:39Z,42.805,6.029,13.2959,4.59959,2470.03,2019-12-26T15:27:10Z
2019-12-26T13:29:42Z,42.805,6.029,13.2960,4.59961,2470.03,2019-12-26T15:30:13Z
2019-12-26T13:32:46Z,42.805,6.029,13.2961,4.59964,2470.03,2019-12-26T15:33:17Z
2019-12-26T13:35:49Z,42.805,6.029,13.2961,4.59963,2470.03,2019-12-26T15:36:20Z
2019-12-26T13:38:52Z,42.805,6.029,13.2964,4.59961,2469.97,2019-12-26T15:39:23Z
2019-12-26T13:41:55Z,42.805,6.029,13.2961,4.59961,2470.03,2019-12-26T15:42:26Z
2019-12-26T13:44:59Z,42.805,6.029,13.2961,4.59963,2470.007,2019-12-26T15:45:29Z
2019-12-26T13:48:02Z,42.805,6.029,13.2958,4.59964,2469.993,2019-12-26T15:48:33Z
2019-12-26T13:51:05Z,42.805,6.029,13.2961,4.59970,2470.007,2019-12-26T15:51:36Z
2019-12-26T13:54:08Z,42.805,6.029,13.2961,4.59963,2469.97,2019-12-26T15:54:39Z
2019-12-26T13:57:11Z,42.805,6.029,13.2960,4.59970,2470.007,2019-12-26T15:57:42Z
2019-12-26T14:00:15Z,42.805,6.029,13.2961,4.59961,2469.97,2019-12-26T16:00:46Z
2019-12-26T14:03:18Z,42.805,6.029,13.2956,4.59964,2470.007,2019-12-26T16:03:49Z
2019-12-26T14:06:21Z,42.805,6.029,13.2958,4.59962,2469.984,2019-12-26T16:06:52Z
2019-12-26T14:09:24Z,42.805,6.029,13.2960,4.59969,2470.03,2019-12-26T16:09:55Z
2019-12-26T14:12:28Z,42.805,6.029,13.2961,4.59983,2470.007,2019-12-26T16:12:58Z
2019-12-26T14:15:31Z,42.805,6.029,13.2961,4.59973,2470.04,2019-12-26T16:16:02Z
2019-12-26T14:18:34Z,42.805,6.029,13.2962,4.59968,2469.97,2019-12-26T16:19:05Z
2019-12-26T14:21:37Z,42.805,6.029,13.2961,4.59971,2470.017,2019-12-26T16:22:08Z
2019-12-26T14:24:40Z,42.805,6.029,13.2961,4.59971,2470.017,2019-12-26T16:25:11Z
2019-12-26T14:27:44Z,42.805,6.029,13.2958,4.59979,2469.97,2019-12-26T16:28:15Z
2019-12-26T14:30:47Z,42.805,6.029,13.2961,4.59971,2469.993,2019-12-26T16:31:18Z
2019-12-26T14:33:50Z,42.805,6.029,13.2963,4.59976,2470.007,2019-12-26T16:34:21Z
2019-12-26T14:36:53Z,42.805,6.029,13.2958,4.59964,2470.007,2019-12-26T16:37:24Z
2019-12-26T14:39:56Z,42.805,6.029,13.2958,4.59973,2470.017,2019-12-26T16:40:27Z
2019-12-26T14:43:00Z,42.805,6.029,13.2957,4.59970,2469.993,2019-12-26T16:43:31Z
2019-12-26T14:46:03Z,42.805,6.029,13.2962,4.59968,2470.017,2019-12-26T16:46:34Z
2019-12-26T14:49:06Z,42.805,6.029,13.2958,4.59963,2470.007,2019-12-26T16:49:37Z
2019-12-26T14:52:09Z,42.805,6.029,13.2958,4.59964,2470.007,2019-12-26T16:52:40Z
2019-12-26T14:55:13Z,42.805,6.029,13.2958,4.59964,2469.993,2019-12-26T16:55:43Z
2019-12-26T14:58:16Z,42.805,6.029,13.2958,4.59966,2470.007,2019-12-26T16:58:47Z
2019-12-26T15:01:19Z,42.805,6.029,13.2957,4.59963,2470.007,2019-12-26T17:01:50Z